Погода в Копейкине

Россия / Омская область     54°38′55″N   73°46′04″E
темп.,
°C
ветер,
м/с
пор.,
м/с
влажн.,
%
обл.,
%
осадки,
мм/ч
давл.,
гПа
погр.,
м
26 февраля, пт
пт2600:00−29зсз459964 0.1 102376
03:00−27з4898100 0.0 1025194
06:00−28з469898 0.1 1028113
09:00−30з349991 0.0 103053
12:00−26з469591 0.0 1031288
15:00−24зюз469388 0.0 1032410
18:00−26зюз359693 0.0 103388
21:00−29зюз349777 0.0 103446
27 февраля, сб
сб2700:00−30юз239874 0.0 103422
03:00−31юз239980 0.0 103420
06:00−32юз239951 0.0 103419
09:00−31ююз229835 0.0 103419
12:00−26ю349517 0.0 1034200
15:00−24ююв359569 0.0 1034260
18:00−27юв349667 0.0 103366
21:00−29юв479626 0.0 1032112
28 февраля, вс
вс2800:00−29юв479917 0.0 1031109
03:00−26юв599894 0.0 1028168
06:00−22юв6109397 0.0 1026244
09:00−20юв61192100 0.0 1023306
12:00−16юв71193100 0.1 1021421
15:00−13юв71192100 0.1 1018504
18:00−13вюв71393100 0.3 1015445
21:00−11вюв81394100 1.0 1011423
1 марта, пн
пн100:00−8в71294100 2.6 1007413
03:00−7всв61095100 1.9 1005297
06:00−10ссв469599 2.1 1006117
09:00−11ссв349699 0.1 100785
12:00−9св2293100 0.2 1008207
15:00−7св2293100 0.6 1008228
18:00−8ссв3595100 1.1 1008260
21:00−11ссз469692 0.4 1010141
2 марта, вт
вт200:00−16сз459776 0.4 101381
03:00−17зсз369787 0.0 1014105
06:00−16зсз369694 0.2 1016212
09:00−18з359797 0.1 101685
12:00−15з359398 0.1 1017337
15:00−14з3591100 0.0 1017416
18:00−16зюз239598 0.0 101625
21:00−19зюз239968 0.0 101720